STARLINK-32948 (63123 NORAD) Tracking and Keplerian Element Data

This shows tracking and keplerian element data for the satellite.

Feedback or suggestion? Click here.




ElementValue
Catalog63123
NameSTARLINK-32948
Epoch Orbit4588
Epoch Day354.02634883
Epoch Year2025
RAAN102.6493
Inclination43.0036
Eccentricity0.0002311
Argument of Perigee270.2573
Mean Anonmoly89.8014
Mean Motion15.27594392
Decay Rate0.0001444
L11 63123U 25039V 25354.02634883 .00014440 00000+0 53300-3 0 9993
L22 63123 43.0036 102.6493 0002311 270.2573 89.8014 15.27594392 45883



Live tracking and technical data element details for STARLINK-32948 (NORAD 63123). STARLINK-32948 can be tracked NOW for your location showing map with azimuth and elevation plus other details from your city location.







IsCatalogInMostPopularTable: catalog: 63123, numindb: 2
Update: records affected: 1



GetName: 63123 STARLINK-32948

Hit Count: updated at: Sun, 08 Feb 2026 07:10:44 GMT